THORAD AGENA D DEB, 4766

Orbit data source: Space-Track

THORAD AGENA D DEB, 4766 is space debris in SSO originally from a launch on Wed, 08 Apr 1970 UTC launched from the Air Force Western Test Range (AFWTR). Debris objects in space refer to the collection of defunct objects orbiting the Earth. Examples of debris include non-operational satellites, rocket bodies, and fragments generated from explosions, collisions, or faulty payload assembly.

Loading next visibility...
Identifier
4766, 1970-025DL
Orbit
SSO
Country
Flag of USUS
Related business
Manufacturer
Unknown
Mission
Spacecraft
Bus & Motor
Unknown
Mass
Unknown
Launch date (UTC)
1970-04-08 (56 years ago)
Launch vehicle
Unknown
Launch site
Air Force Western Test Range (AFWTR)
Object type
Payload
Rocket body
Debris
Shape & HBR
Unknown shape, 0.2 m
Radar Cross Section
Medium (>0.1 m² and <1 m²)

Expand to show TLE details & history
Last TLE update: 23 hours ago

TLE from 23 hours ago
0 THORAD AGENA D DEB
1 04766U 70025DL  26255.28735134  .00000013  00000-0  87102-4 0  9996
2 04766 100.1466  51.0397 0009762 134.6845 344.5402 13.55960246788436
Epoch: 2026-09-12T06:53Z
TLE epoch observation values (Epoch: 2026-09-12T06:53:47.155Z)
Latitude
59.33519°
Longitude
153.76917°
Altitude
1,053.381 km
Speed
7.334 km/s
True Right ascension
16h 34m 03s
True Declination
59° 11' 24"
Sunlit
Object was in daylight at epoch
Visualization orbit readout
Latitude
Unknown
Longitude
Unknown
Altitude
Unknown
Speed
Unknown
Apparent Right ascension
Unknown
Apparent Declination
Unknown
Sunlit
N/A
Visualization observer readout
Local Sidereal Time
22:09:14
Azimuth
Unknown
Elevation
Unknown
Doppler factor
Unknown
Orbital elements
Apogee altitude
1,054.976 km
Perigee altitude
1,040.478 km
Semi-major axis
7,425.864 km
Eccentricity
0.00098
Inclination
100.1466°
RAAN
51.0397°
Arg. of periapsis
134.6845°
True anomaly
344.51035°
Mean anomaly
344.5402°
Eccentric anomaly
344.52528°
Mean motion
3.39174 °/min
Orbital period
106.14 mins
BSTAR
0.000087102
Loading maneuver chart data...
Computing Atmospheric mass density...

Documentation

Showing up to 5 results
|